Port Clinton Carl R Keller Fi, OH

5:33 AM EDT on May 27, 2017 (GMT -0400)
Keller

Weather History for KPCW - March, 2014

Change the Weather History Date:

Thursday, March 13, 2014

  Actual Average (KTTF) Record (KTTF)
Temperature  
Mean Temperature 18 °F -  
Max Temperature 28 °F 43 °F 77 °F (1990)
Min Temperature 10 °F 27 °F 0 °F (2014)
Degree Days  
Heating Degree Days 47    
Moisture  
Dew Point 6 °F    
Average Humidity 61    
Maximum Humidity 73    
Minimum Humidity 49    
Precipitation  
Precipitation 0.00 in - - ()
Sea Level Pressure  
Sea Level Pressure 30.08 in    
Wind  
Wind Speed 11 mph (WSW)    
Max Wind Speed 16 mph    
Max Gust Speed -    
Visibility 10 miles    
Events      
Averages and records for this station are not official NWS values.
T = Trace of Precipitation, MM = Missing Value Source: NWS Daily Summary

Daily Weather History Graph

Daily Weather History Graph

Search for Another Location

Airport or City:

Trip Planner

Search our weather history database for the weather conditions in past years. The results will help you decide how hot, cold, wet, or windy it might be!

Date:

Astronomy

Mar. 13, 2014 Rise Set
Actual Time 7:46 AM EDT 7:35 PM EDT
Civil Twilight 7:19 AM EDT 8:03 PM EDT
Nautical Twilight 6:46 AM EDT 8:35 PM EDT
Astronomical Twilight 6:14 AM EDT 9:08 PM EDT
Moon 4:59 PM EDT (3/13) 5:54 AM EDT (3/13)
Length of Visible Light 12h 44m
Length of Day
11h 49m
Waxing Gibbous, 91% of the Moon is Illuminated
Mar 13
Waxing Gibbous
Mar 16
Full
Mar 23
Last Quarter
Mar 30
New
Apr 7
First Quarter

Hourly Weather History & Observations

Time (EDT) Temp. Windchill Dew Point Humidity Pressure Visibility Wind Dir Wind Speed Gust Speed Precip Events Conditions
12:13 AM 10.4 °F -4.1 °F 1.4 °F 67% 29.99 in 10.0 mi NNE 11.5 mph - N/A   Clear
12:34 AM 10.4 °F -3.3 °F 1.4 °F 67% 29.99 in 10.0 mi North 10.4 mph - N/A   Clear
12:54 AM 11.1 °F -3.2 °F 0.1 °F 61% 29.99 in 10.0 mi NNE 11.5 mph - N/A   Clear
1:13 AM 10.4 °F -3.3 °F -0.4 °F 62% 29.99 in 10.0 mi North 10.4 mph - N/A   Clear
1:34 AM 12.2 °F -1.0 °F 1.4 °F 62% 29.99 in 10.0 mi North 10.4 mph - N/A   Clear
1:53 AM 12.2 °F -1.8 °F 3.2 °F 67% 29.99 in 10.0 mi North 11.5 mph - N/A   Clear
2:14 AM 12.2 °F -2.5 °F 1.4 °F 62% 30.00 in 10.0 mi NNW 12.7 mph - N/A   Clear
2:34 AM 14.0 °F 1.2 °F 3.2 °F 62% 30.00 in 10.0 mi NNW 10.4 mph - N/A   Clear
2:53 AM 14.0 °F 2.0 °F 5.0 °F 67% 30.00 in 10.0 mi NNW 9.2 mph - N/A   Clear
3:14 AM 14.0 °F 0.5 °F 5.0 °F 67% 30.00 in 10.0 mi NW 11.5 mph - N/A   Clear
3:34 AM 14.0 °F 1.2 °F 5.0 °F 67% 30.01 in 10.0 mi NW 10.4 mph - N/A   Clear
3:54 AM 14.0 °F 1.2 °F 4.1 °F 65% 30.01 in 10.0 mi NW 10.4 mph - N/A   Clear
4:14 AM 14.0 °F 0.5 °F 3.2 °F 62% 30.01 in 10.0 mi NNW 11.5 mph - N/A   Clear
4:33 AM 14.0 °F 0.5 °F 3.2 °F 62% 30.01 in 10.0 mi NW 11.5 mph - N/A   Clear
4:54 AM 13.1 °F -0.7 °F 4.1 °F 67% 30.02 in 10.0 mi WNW 11.5 mph - N/A   Clear
5:14 AM 12.2 °F -0.2 °F 3.2 °F 67% 30.03 in 10.0 mi NW 9.2 mph - N/A   Clear
5:33 AM 12.2 °F -2.5 °F 1.4 °F 62% 30.03 in 10.0 mi NW 12.7 mph - N/A   Clear
5:53 AM 12.2 °F -1.8 °F 1.4 °F 62% 30.04 in 10.0 mi NW 11.5 mph - N/A   Clear
6:14 AM 12.2 °F -0.2 °F 3.2 °F 67% 30.04 in 10.0 mi WNW 9.2 mph - N/A   Clear
6:33 AM 12.2 °F -1.8 °F 3.2 °F 67% 30.05 in 10.0 mi WNW 11.5 mph - N/A   Clear
6:54 AM 11.1 °F -2.4 °F 3.0 °F 70% 30.06 in 10.0 mi WNW 10.4 mph - N/A   Clear
7:14 AM 12.2 °F 0.7 °F 3.2 °F 67% 30.06 in 10.0 mi WNW 8.1 mph - N/A   Clear
7:33 AM 10.4 °F -1.5 °F 3.2 °F 73% 30.07 in 10.0 mi WNW 8.1 mph - N/A   Clear
7:54 AM 11.1 °F -1.6 °F 3.0 °F 70% 30.08 in 10.0 mi WNW 9.2 mph - N/A   Clear
8:14 AM 10.4 °F -2.4 °F 3.2 °F 73% 30.10 in 10.0 mi WNW 9.2 mph - N/A   Clear
8:33 AM 12.2 °F 0.7 °F 3.2 °F 67% 30.11 in 10.0 mi WNW 8.1 mph - N/A   Clear
8:54 AM 12.0 °F -1.3 °F 3.0 °F 67% 30.13 in 10.0 mi WNW 10.4 mph - N/A   Clear
9:13 AM 12.2 °F -0.2 °F 3.2 °F 67% 30.14 in 10.0 mi WNW 9.2 mph - N/A   Clear
9:34 AM 12.2 °F -1.0 °F 3.2 °F 67% 30.15 in 10.0 mi WNW 10.4 mph - N/A   Clear
9:54 AM 13.1 °F 0.9 °F 4.1 °F 67% 30.16 in 10.0 mi WNW 9.2 mph - N/A   Clear
10:13 AM 14.0 °F 2.0 °F 3.2 °F 62% 30.16 in 10.0 mi WNW 9.2 mph - N/A   Clear
10:34 AM 15.8 °F 7.2 °F 5.0 °F 62% 30.16 in 10.0 mi WNW 5.8 mph - N/A   Clear
10:54 AM 16.2 °F 5.5 °F 5.0 °F 62% 30.17 in 10.0 mi WNW 8.1 mph - N/A   Clear
11:13 AM 15.8 °F 6.1 °F 5.0 °F 62% 30.18 in 10.0 mi West 6.9 mph - N/A   Clear
11:34 AM 17.6 °F 9.3 °F 6.8 °F 63% 30.17 in 10.0 mi West 5.8 mph - N/A   Clear
11:54 AM 17.1 °F 7.6 °F 5.0 °F 59% 30.16 in 10.0 mi SW 6.9 mph - N/A   Clear
12:13 PM 15.8 °F 7.2 °F 3.2 °F 58% 30.17 in 10.0 mi SSW 5.8 mph - N/A   Clear
12:34 PM 17.6 °F 6.4 °F 3.2 °F 53% 30.17 in 10.0 mi SSW 9.2 mph - N/A   Clear
12:54 PM 17.6 °F 7.3 °F 3.2 °F 53% 30.16 in 10.0 mi SW 8.1 mph - N/A   Clear
1:13 PM 19.4 °F 7.9 °F 3.2 °F 49% 30.15 in 10.0 mi SW 10.4 mph - N/A   Clear
1:34 PM 19.4 °F 7.9 °F 5.0 °F 54% 30.16 in 10.0 mi SW 10.4 mph - N/A   Clear
1:53 PM 19.4 °F 7.2 °F 5.0 °F 54% 30.16 in 10.0 mi SW 11.5 mph - N/A   Clear
2:14 PM 19.4 °F 7.9 °F 5.0 °F 54% 30.14 in 10.0 mi SSW 10.4 mph - N/A   Clear
2:33 PM 19.4 °F 5.5 °F 5.0 °F 54% 30.14 in 10.0 mi SW 15.0 mph - N/A   Clear
2:53 PM 19.4 °F 5.5 °F 5.0 °F 54% 30.13 in 10.0 mi SSW 15.0 mph - N/A   Clear
3:14 PM 21.2 °F 7.3 °F 6.8 °F 54% 30.13 in 10.0 mi SW 16.1 mph - N/A   Clear
3:33 PM 21.2 °F 7.8 °F 6.8 °F 54% 30.14 in 10.0 mi SSW 15.0 mph - N/A   Clear
3:54 PM 22.1 °F 9.5 °F 8.1 °F 55% 30.12 in 10.0 mi SSW 13.8 mph - N/A   Clear
4:13 PM 21.2 °F 7.8 °F 6.8 °F 54% 30.11 in 10.0 mi SSW 15.0 mph - N/A   Clear
4:34 PM 21.2 °F 7.8 °F 6.8 °F 54% 30.11 in 10.0 mi SSW 15.0 mph - N/A   Clear
4:54 PM 23.0 °F 10.6 °F 8.1 °F 53% 30.12 in 10.0 mi SSW 13.8 mph - N/A   Clear
5:13 PM 23.0 °F 9.6 °F 6.8 °F 50% 30.10 in 10.0 mi SSW 16.1 mph - N/A   Partly Cloudy
5:34 PM 21.2 °F 8.3 °F 6.8 °F 54% 30.09 in 10.0 mi SSW 13.8 mph - N/A   Mostly Cloudy
5:54 PM 23.0 °F 11.7 °F 9.1 °F 55% 30.09 in 10.0 mi SSW 11.5 mph - N/A   Mostly Cloudy
6:13 PM 23.0 °F 13.9 °F 10.4 °F 59% 30.09 in 10.0 mi SSW 8.1 mph - N/A   Mostly Cloudy
6:34 PM 21.2 °F 10.9 °F 10.4 °F 63% 30.08 in 10.0 mi SSW 9.2 mph - N/A   Mostly Cloudy
6:53 PM 23.0 °F 11.7 °F 11.1 °F 60% 30.08 in 10.0 mi South 11.5 mph - N/A   Mostly Cloudy
7:13 PM 23.0 °F 13.1 °F 8.6 °F 54% 30.08 in 10.0 mi SSW 9.2 mph - N/A   Mostly Cloudy
7:34 PM 23.0 °F 13.9 °F 8.6 °F 54% 30.07 in 10.0 mi South 8.1 mph - N/A   Mostly Cloudy
7:53 PM 23.0 °F 13.9 °F 8.6 °F 54% 30.07 in 10.0 mi South 8.1 mph - N/A   Mostly Cloudy
8:13 PM 23.0 °F 14.7 °F 8.6 °F 54% 30.07 in 10.0 mi South 6.9 mph - N/A   Mostly Cloudy
8:34 PM 23.0 °F 14.7 °F 10.4 °F 59% 30.05 in 10.0 mi South 6.9 mph - N/A   Overcast
8:53 PM 24.8 °F 15.3 °F 10.4 °F 54% 30.05 in 10.0 mi South 9.2 mph - N/A   Overcast
9:14 PM 24.8 °F 15.3 °F 12.2 °F 59% 30.04 in 10.0 mi South 9.2 mph - N/A   Overcast
9:34 PM 24.8 °F 16.1 °F 12.2 °F 59% 30.05 in 10.0 mi South 8.1 mph - N/A   Overcast
9:53 PM 24.8 °F 14.6 °F 15.8 °F 69% 30.04 in 10.0 mi South 10.4 mph - N/A   Mostly Cloudy
10:14 PM 24.8 °F 14.0 °F 15.8 °F 69% 30.02 in 10.0 mi South 11.5 mph - N/A   Overcast
10:34 PM 26.6 °F 15.7 °F 15.8 °F 64% 30.01 in 10.0 mi South 12.7 mph - N/A   Overcast
10:53 PM 26.6 °F 15.7 °F 17.6 °F 69% 30.01 in 10.0 mi South 12.7 mph - N/A   Overcast
11:14 PM 26.6 °F 16.2 °F 17.6 °F 69% 30.01 in 10.0 mi South 11.5 mph - N/A   Overcast
11:34 PM 26.6 °F 17.5 °F 17.6 °F 69% 30.00 in 10.0 mi South 9.2 mph - N/A   Scattered Clouds
11:53 PM 28.0 °F 18.6 °F 17.1 °F 63% 29.99 in 10.0 mi South 10.4 mph - N/A   Clear